Weather History for Pompano Beach, FL

Change the Weather History Date:

Wednesday, July 31, 2013

  Actual Average Record
Temperature  
Mean Temperature 86 °F -  
Max Temperature 91 °F 92 °F 97 °F (1990)
Min Temperature 82 °F 75 °F 68 °F (1949)
Cooling Degree Days 21    
Growing Degree Days 36 (Base 50)    
Moisture  
Dew Point 76 °F    
Average Humidity 72    
Maximum Humidity 89    
Minimum Humidity 59    
Precipitation  
Precipitation 0.02 in - - ()
Sea Level Pressure  
Sea Level Pressure 30.07 in    
Wind  
Wind Speed 9 mph (East)    
Max Wind Speed 15 mph    
Max Gust Speed 20 mph    
Visibility 10 miles    
Events Rain    
Averages and records for this station are not official NWS values.
T = Trace of Precipitation, MM = Missing Value Source: NWS Daily Summary

Daily Weather History Graph

Daily Weather History Graph

Search for Another Location

Airport:

Trip Planner

Search our weather history database for the weather conditions in past years. The results will help you decide how hot, cold, wet, or windy it might be!

Date:

Astronomy

Jul. 31, 2013 Rise Set
Actual Time 6:45 AM EDT 8:07 PM EDT
Civil Twilight 6:20 AM EDT 8:32 PM EDT
Nautical Twilight 5:51 AM EDT 9:02 PM EDT
Astronomical Twilight 5:20 AM EDT 9:32 PM EDT
Moon 1:39 AM EDT (7/31) 3:20 PM EDT (7/31)
Length of Visible Light 14h 11m
Length of Day
13h 22m
Waning Crescent, 32% of the Moon is Illuminated
Jul 31
Waning Crescent
Aug 6
New
Aug 14
First Quarter
Aug 20
Full
Aug 28
Last Quarter

Hourly Weather History & Observations

Time (EDT) Temp. Heat Index Dew Point Humidity Pressure Visibility Wind Dir Wind Speed Gust Speed Precip Events Conditions
12:53 AM 84.0 °F 92.6 °F 75.9 °F 76% 30.11 in 10.0 mi ESE 8.1 mph - N/A   Unknown
1:53 AM 84.0 °F 92.6 °F 75.9 °F 76% 30.09 in 10.0 mi East 5.8 mph - N/A   Unknown
2:53 AM 84.0 °F 92.6 °F 75.9 °F 76% 30.08 in 10.0 mi East 8.1 mph - N/A   Unknown
3:53 AM 82.9 °F 90.8 °F 75.9 °F 79% 30.06 in 10.0 mi East 4.6 mph - N/A   Unknown
4:41 AM 82.4 °F 90.9 °F 77.0 °F 84% 30.05 in 10.0 mi East 4.6 mph - 0.02 in Rain Light Rain
4:49 AM 82.4 °F 92.4 °F 78.8 °F 89% 30.05 in 10.0 mi East 9.2 mph - 0.02 in   Mostly Cloudy
4:53 AM 82.9 °F 91.8 °F 77.0 °F 82% 30.05 in 10.0 mi East 9.2 mph - 0.02 in   Overcast
5:53 AM 82.9 °F 91.8 °F 77.0 °F 82% 30.06 in 10.0 mi East 10.4 mph - N/A   Scattered Clouds
6:53 AM 82.9 °F 91.8 °F 77.0 °F 82% 30.07 in 10.0 mi East 6.9 mph - N/A   Partly Cloudy
7:53 AM 84.0 °F 93.7 °F 77.0 °F 79% 30.09 in 10.0 mi East 6.9 mph - N/A   Partly Cloudy
8:53 AM 84.9 °F 95.3 °F 77.0 °F 77% 30.11 in 10.0 mi East 10.4 mph - N/A   Scattered Clouds
9:53 AM 88.0 °F 98.5 °F 75.9 °F 67% 30.12 in 10.0 mi East 10.4 mph - N/A   Scattered Clouds
10:53 AM 88.0 °F 98.5 °F 75.9 °F 67% 30.12 in 10.0 mi East 12.7 mph - N/A   Partly Cloudy
11:53 AM 89.1 °F 100.2 °F 75.9 °F 65% 30.12 in 10.0 mi East 12.7 mph - N/A   Scattered Clouds
12:53 PM 90.0 °F 101.3 °F 75.9 °F 63% 30.11 in 10.0 mi East 11.5 mph - N/A   Scattered Clouds
1:53 PM 90.0 °F 100.2 °F 75.0 °F 61% 30.10 in 10.0 mi ESE 12.7 mph - N/A   Scattered Clouds
2:53 PM 90.0 °F 100.2 °F 75.0 °F 61% 30.08 in 10.0 mi East 13.8 mph - N/A   Scattered Clouds
3:53 PM 90.0 °F 101.3 °F 75.9 °F 63% 30.06 in 10.0 mi East 13.8 mph - N/A   Scattered Clouds
4:53 PM 90.0 °F 99.0 °F 73.9 °F 59% 30.04 in 10.0 mi ESE 15.0 mph 19.6 mph N/A   Scattered Clouds
5:53 PM 88.0 °F 97.5 °F 75.0 °F 65% 30.02 in 10.0 mi East 15.0 mph - N/A   Partly Cloudy
6:53 PM 87.1 °F 96.3 °F 75.0 °F 67% 30.02 in 10.0 mi East 15.0 mph - N/A   Partly Cloudy
7:53 PM 86.0 °F 95.1 °F 75.0 °F 70% 30.04 in 10.0 mi East 10.4 mph - N/A   Clear
8:53 PM 84.9 °F 91.4 °F 73.0 °F 67% 30.06 in 10.0 mi East 11.5 mph - N/A   Clear
9:53 PM 84.9 °F 90.7 °F 72.0 °F 65% 30.06 in 10.0 mi ESE 9.2 mph - N/A   Clear
10:53 PM 84.9 °F 92.1 °F 73.9 °F 69% 30.08 in 10.0 mi East 10.4 mph - N/A   Scattered Clouds
11:53 PM 84.9 °F 93.3 °F 75.0 °F 72% 30.07 in 10.0 mi ESE 8.1 mph - N/A   Partly Cloudy